TimeMDT,TemperatureF,Dew PointF,Humidity,Sea Level PressureIn,VisibilityMPH,Wind Direction,Wind SpeedMPH,Gust SpeedMPH,PrecipitationIn,Events,Conditions,WindDirDegrees,DateUTC
12:53 AM,51.1,27.0,39,29.79,10.0,West,10.4,-,N/A,,Mostly Cloudy,270,2011-10-12 06:53:00
1:53 AM,54.0,25.0,33,29.81,10.0,WSW,15.0,24.2,N/A,,Overcast,250,2011-10-12 07:53:00
2:53 AM,50.0,34.0,54,29.83,10.0,WSW,16.1,-,0.01,,Overcast,250,2011-10-12 08:53:00
3:53 AM,51.1,39.9,66,29.84,10.0,WSW,17.3,-,N/A,,Overcast,250,2011-10-12 09:53:00
4:53 AM,50.0,39.0,66,29.87,10.0,West,12.7,-,N/A,,Overcast,260,2011-10-12 10:53:00
5:53 AM,50.0,37.9,63,29.89,10.0,WSW,15.0,-,N/A,,Overcast,250,2011-10-12 11:53:00
6:53 AM,48.9,36.0,61,29.92,10.0,West,13.8,-,N/A,,Overcast,260,2011-10-12 12:53:00
7:53 AM,48.2,33.8,58,29.93,10.0,West,12.7,-,N/A,,Partly Cloudy,260,2011-10-12 13:53:00
8:53 AM,52.0,33.1,49,29.95,10.0,West,18.4,-,N/A,,Clear,270,2011-10-12 14:53:00
9:53 AM,55.0,32.0,42,29.95,10.0,WNW,19.6,27.6,N/A,,Overcast,290,2011-10-12 15:53:00
10:53 AM,60.1,30.9,33,29.95,10.0,WNW,25.3,36.8,N/A,,Partly Cloudy,290,2011-10-12 16:53:00
11:53 AM,60.1,30.0,32,29.95,10.0,NW,19.6,33.4,N/A,,Mostly Cloudy,310,2011-10-12 17:53:00
12:53 PM,64.0,30.0,28,29.94,10.0,WNW,21.9,33.4,N/A,,Clear,290,2011-10-12 18:53:00
1:53 PM,64.0,28.0,26,29.93,10.0,WNW,18.4,32.2,N/A,,Scattered Clouds,290,2011-10-12 19:53:00
3:53 PM,64.9,28.0,25,29.92,10.0,WNW,19.6,29.9,N/A,,Clear,290,2011-10-12 21:53:00
4:53 PM,63.0,27.0,26,29.93,10.0,WNW,23.0,29.9,N/A,,Clear,290,2011-10-12 22:53:00
5:53 PM,60.1,28.0,30,29.94,10.0,West,11.5,-,N/A,,Mostly Cloudy,280,2011-10-12 23:53:00
6:53 PM,53.1,28.9,40,29.96,10.0,West,6.9,-,N/A,,Partly Cloudy,280,2011-10-13 00:53:00
7:53 PM,51.8,30.2,44,29.94,10.0,WNW,5.8,-,N/A,,Scattered Clouds,300,2011-10-13 01:53:00
8:53 PM,51.1,30.9,46,29.95,10.0,WNW,10.4,-,N/A,,Clear,290,2011-10-13 02:53:00
9:53 PM,51.1,30.9,46,29.95,10.0,WNW,9.2,-,N/A,,Clear,290,2011-10-13 03:53:00
10:53 PM,50.0,30.9,48,29.95,10.0,West,8.1,-,N/A,,Clear,260,2011-10-13 04:53:00
11:53 PM,48.9,30.9,50,29.96,10.0,West,6.9,-,N/A,,Clear,280,2011-10-13 05:53:00